Dewpoint
72 70 69 69 57 55 47 49 50 49 52 55 55 55 56 60 57 54 68 69 70 73 74 74 76 75 74 74 74 74 74 73 74 75 74 74 74 74 74 74 73 73 73 73 73 73 72 71 70
68 67 70 66 52 45 47 49 49 51 54 56 55 56 56 59 66 67 68 69 72 74 74 74 76 76 74 74 74 74 73 73 73 74 74 74 74 74 74 74 73 72 72 73 73 73 73 72 72
70 72 65 60 53 44 44 48 52 53 54 55 53 56 59 64 67 66 70 70 73 73 74 74 77 76 74 74 74 74 74 74 74 74 74 73 73 73 73 73 73 73 72 72 72 72 74 73 73
69 70 67 58 52 49 46 49 55 53 53 53 55 56 61 66 66 69 70 72 72 73 74 76 77 76 75 74 74 74 74 74 74 74 73 73 73 73 73 73 73 74 73 73 73 72 74 73 73
69 66 59 56 48 45 47 51 52 53 51 52 54 57 62 66 69 70 71 71 71 72 74 75 78 78 77 76 74 74 74 74 74 73 73 72 73 74 73 73 73 73 74 73 73 74 74 73 73
59 62 53 47 44 45 50 55 54 52 54 56 58 58 61 68 69 70 70 70 71 73 74 75 76 78 77 75 75 75 75 74 74 73 73 73 73 73 73 73 73 73 73 74 73 74 74 72 73
61 59 54 54 45 45 49 56 53 54 54 54 57 56 63 67 69 69 69 70 71 73 74 74 74 74 75 75 75 75 75 74 74 74 74 74 74 73 74 74 74 74 74 74 73 74 74 72 72
63 60 56 56 45 44 50 52 55 53 55 56 58 57 61 65 68 68 68 70 71 72 73 74 74 73 73 73 76 76 76 75 75 74 74 74 74 74 74 74 74 73 74 74 74 74 74 73 73
63 52 52 52 46 45 45 49 54 56 55 56 56 58 62 66 67 67 70 70 71 71 72 73 73 72 73 73 74 76 75 75 75 74 74 74 73 73 73 73 74 73 74 74 73 73 74 74 75
60 54 52 55 53 44 45 50 53 55 54 54 56 61 64 65 66 68 69 69 69 70 72 73 72 72 72 73 73 74 73 72 72 73 72 73 73 73 73 74 74 74 74 74 74 75 75 74 73
60 53 55 55 57 46 44 48 53 53 53 54 55 58 63 64 66 67 68 68 69 69 71 72 72 72 72 72 72 73 73 73 73 73 73 72 73 73 74 72 72 72 75 73 74 74 74 73 73
57 58 58 59 58 48 48 51 52 53 53 54 56 57 62 64 65 66 66 67 67 67 69 70 71 71 71 71 71 73 73 73 72 72 72 72 72 72 71 72 72 73 73 74 73 73 73 73 72
60 59 59 59 58 54 54 53 51 54 55 55 56 56 58 63 64 65 65 66 66 66 67 68 70 70 70 69 72 72 72 73 72 72 72 72 72 71 71 72 72 73 73 72 72 72 72 71 70
60 60 60 59 58 55 51 53 54 55 54 54 55 55 56 56 60 64 64 64 65 65 65 66 68 69 69 69 71 71 71 71 72 71 71 72 72 71 70 70 71 72 73 72 71 71 71 70 69
60 58 59 57 57 56 54 53 53 55 54 54 54 55 56 56 56 57 62 62 63 64 65 66 67 68 68 69 70 71 71 71 71 71 71 72 72 71 71 70 70 72 72 72 71 71 71 69 70
59 61 54 53 56 55 51 51 54 55 54 53 54 54 55 55 56 56 56 59 60 63 64 66 67 67 67 66 69 70 70 70 70 70 70 71 71 70 70 70 70 71 72 71 71 71 71 70 70
58 52 53 50 52 54 51 48 53 54 53 53 53 54 54 55 55 56 56 56 58 61 63 65 66 66 67 67 68 69 69 68 68 69 70 70 70 70 70 69 69 69 69 69 70 70 70 70 69
50 51 50 50 52 51 52 50 53 54 52 51 52 52 53 53 53 54 55 56 57 58 62 65 66 66 66 67 67 68 67 67 68 68 69 69 69 69 69 69 69 67 67 67 68 68 70 70 70
53 53 53 53 53 51 51 51 52 53 54 51 51 51 51 52 53 54 55 56 57 58 61 64 65 66 66 67 67 67 66 67 67 68 67 68 70 69 69 68 68 68 67 67 68 68 68 69 70
55 53 52 52 51 51 51 52 52 52 52 54 52 50 50 51 51 53 56 56 57 58 60 62 63 64 66 66 66 67 67 67 66 67 68 67 67 69 69 69 68 67 68 68 68 69 69 69 69
49 49 49 50 50 53 51 48 48 51 54 55 55 51 50 50 50 52 54 56 57 58 59 60 62 63 64 65 67 68 68 68 67 67 67 67 68 68 69 69 69 70 69 68 68 67 67 65 68
50 48 48 48 49 46 46 40 40 47 50 54 55 53 51 50 50 51 53 55 56 58 59 60 60 62 63 65 66 65 64 65 65 66 67 67 68 68 69 69 70 69 70 69 68 68 68 66 65
44 43 44 41 41 44 44 36 36 42 46 49 52 54 53 51 49 50 52 53 55 57 60 60 61 61 63 65 65 65 65 65 66 67 68 68 68 69 69 69 69 69 69 69 69 68 68 69 68
46 42 43 43 38 34 38 36 35 38 41 45 50 53 54 53 52 50 51 52 53 56 59 61 61 62 62 66 66 66 65 65 67 68 68 68 69 69 70 69 69 70 70 69 69 68 67 68 68
39 38 36 36 36 35 40 36 36 41 41 44 47 48 54 54 54 52 51 51 51 54 56 60 61 62 63 64 67 67 67 66 67 68 68 68 69 72 72 71 69 69 70 69 69 69 68 68 68
35 36 36 34 35 33 40 36 37 39 43 42 41 42 47 54 54 54 54 51 51 53 57 58 60 61 62 63 66 67 67 67 68 69 68 69 69 71 72 72 72 70 70 69 69 70 70 69 68
27 28 36 31 36 33 38 34 35 38 37 39 41 42 43 46 50 54 55 56 55 56 58 60 62 61 62 64 65 67 69 68 69 71 72 72 73 73 73 72 71 71 71 71 71 71 71 71 71
24 22 18 22 29 29 30 30 32 34 35 39 41 42 45 47 49 52 54 55 56 59 60 60 59 61 65 67 67 69 72 68 68 66 64 63 69 72 72 72 71 71 71 70 70 69 69 69 70
22 23 19 20 28 27 27 27 35 38 35 42 46 48 49 49 49 51 51 53 55 56 56 56 62 70 70 70 71 72 66 65 64 64 65 64 64 71 72 71 71 70 70 70 69 68 69 69 69
27 23 21 20 23 27 30 35 42 43 44 47 49 50 51 53 53 54 56 58 59 59 61 67 70 71 72 71 70 68 66 66 66 68 68 67 65 72 72 71 71 70 70 69 68 67 68 68 68
Lifted_Index
-3 -3 -3 -3 -2 -1 -1 -1 -1 -1 -1 -1 -1 -1 -1 -1 -1 -1 -1 -0 -1 -2 -2 -3 -2 -2 -1 -1 -2 -2 -2 -2 -2 -3 -3 -3 -3 -3 -3 -3 -3 -3 -3 -4 -4 -4 -4 -4 -4
-4 -3 -3 -3 -2 -1 -1 -1 -1 -1 -1 -1 -0 -0 -1 -1 -1 -1 -1 -1 -1 -2 -2 -2 -3 -2 -2 -2 -2 -2 -2 -2 -2 -3 -3 -3 -3 -3 -3 -3 -3 -3 -3 -3 -4 -4 -4 -4 -4
-4 -5 -5 -4 -2 -1 -1 -1 -2 -2 -1 -0 0 -0 -1 -1 -1 -1 -1 -1 -2 -2 -2 -3 -3 -3 -2 -2 -2 -2 -2 -2 -3 -3 -3 -3 -3 -3 -3 -3 -3 -3 -3 -3 -3 -4 -4 -4 -4
-5 -5 -5 -4 -2 -1 -1 -1 -2 -2 -1 -0 0 0 -1 -1 -1 -1 -1 -2 -2 -2 -2 -3 -3 -3 -3 -2 -2 -2 -2 -2 -3 -3 -3 -3 -3 -3 -3 -3 -4 -4 -4 -4 -3 -4 -4 -4 -4
-4 -4 -4 -2 -1 -1 -1 -1 -2 -2 -1 -1 -0 -0 -1 -1 -1 -1 -1 -2 -2 -2 -3 -3 -4 -4 -3 -3 -3 -3 -3 -3 -3 -3 -3 -3 -3 -3 -4 -4 -4 -4 -4 -4 -4 -4 -4 -4 -3
-3 -3 -2 -1 -1 -1 -1 -2 -2 -1 -1 -1 -1 -1 -1 -1 -1 -1 -1 -1 -2 -2 -3 -3 -4 -4 -4 -3 -3 -3 -3 -3 -3 -3 -3 -3 -3 -3 -4 -4 -4 -4 -4 -4 -4 -4 -4 -3 -3
-3 -3 -2 -2 -1 -0 -1 -2 -1 -1 -1 -1 -1 -1 -1 -1 -1 -1 -1 -1 -1 -2 -3 -3 -4 -4 -4 -4 -4 -4 -4 -3 -3 -3 -3 -3 -3 -4 -4 -4 -4 -4 -4 -4 -4 -4 -4 -3 -3
-3 -2 -2 -2 -1 -1 -1 -1 -1 -1 -0 -0 -0 -1 -1 -1 -1 -1 -1 -1 -1 -2 -2 -3 -3 -4 -4 -4 -4 -4 -4 -4 -4 -4 -4 -4 -4 -4 -4 -4 -4 -4 -4 -4 -4 -4 -4 -3 -3
-2 -2 -2 -2 -2 -1 -0 -1 -1 -1 -0 0 0 -0 -1 -1 -1 -1 -1 -1 -1 -1 -2 -2 -3 -3 -4 -4 -4 -4 -4 -4 -4 -3 -3 -4 -4 -4 -4 -4 -4 -4 -4 -4 -4 -4 -4 -4 -4
-2 -1 -2 -2 -2 -1 -0 -0 -0 -0 0 1 1 0 -1 -1 -1 -1 -1 -1 -1 -1 -2 -2 -3 -3 -3 -4 -4 -4 -4 -4 -3 -3 -3 -4 -4 -4 -3 -4 -4 -4 -4 -4 -4 -4 -4 -4 -4
-1 -1 -2 -3 -3 -1 -0 -0 -0 0 0 1 1 1 -0 -1 -1 -1 -1 -1 -1 -1 -1 -2 -2 -3 -3 -3 -3 -4 -4 -4 -4 -4 -4 -4 -3 -3 -3 -3 -3 -4 -4 -4 -4 -5 -5 -4 -4
-1 -2 -2 -3 -3 -2 -1 -0 -0 0 0 1 2 1 0 -0 -1 -1 -1 -1 -1 -1 -1 -1 -2 -2 -2 -2 -3 -3 -3 -3 -4 -3 -3 -3 -3 -3 -3 -3 -3 -4 -4 -4 -4 -4 -4 -4 -4
-1 -2 -2 -2 -3 -2 -2 -1 -1 -0 -0 1 2 2 1 0 -0 -1 -1 -1 -1 -1 -1 -1 -1 -1 -1 -1 -2 -2 -3 -3 -3 -3 -3 -3 -3 -2 -3 -3 -3 -4 -4 -4 -4 -3 -3 -3 -3
-1 -2 -2 -3 -2 -2 -2 -1 -1 -1 -1 0 1 2 2 1 0 -0 -1 -1 -1 -0 -0 -0 -1 -1 -1 -1 -1 -2 -2 -2 -2 -2 -2 -2 -2 -2 -2 -3 -3 -4 -4 -4 -3 -3 -3 -2 -2
-2 -2 -2 -3 -2 -2 -2 -1 -1 -1 -1 -0 1 2 2 1 1 0 -0 -0 -0 -0 -0 -0 -1 -1 -1 -1 -1 -1 -2 -2 -2 -2 -2 -2 -2 -2 -2 -3 -3 -4 -4 -4 -3 -3 -3 -3 -2
-2 -3 -2 -2 -2 -2 -1 -1 -1 -1 -1 -1 -0 1 1 1 1 1 1 1 0 0 -0 -0 -1 -1 -1 -1 -1 -1 -1 -1 -2 -2 -2 -2 -2 -2 -2 -2 -3 -3 -3 -4 -3 -3 -3 -3 -3
-2 -2 -2 -2 -2 -2 -1 -1 -1 -1 -1 -1 -1 0 1 1 1 1 1 1 1 1 0 -0 -1 -1 -1 -1 -1 -1 -1 -1 -1 -1 -2 -2 -2 -2 -2 -2 -2 -2 -3 -3 -3 -3 -3 -3 -3
-2 -2 -2 -2 -2 -2 -1 -1 -1 -1 -1 -1 -1 -0 1 1 1 1 1 1 1 1 0 -0 -0 -1 -1 -1 -1 -1 -1 -1 -1 -1 -1 -1 -1 -1 -1 -1 -2 -2 -2 -2 -2 -2 -2 -3 -3
-2 -2 -2 -2 -2 -2 -2 -1 -1 -1 -1 -1 -1 -1 0 1 1 1 1 1 1 1 1 0 -0 -1 -1 -1 -0 -0 -0 -0 -0 -0 -0 -1 -1 -1 -1 -1 -1 -1 -2 -1 -1 -1 -2 -2 -3
-2 -2 -2 -2 -2 -2 -2 -2 -2 -1 -1 -2 -1 -1 -0 0 1 1 1 1 1 1 1 1 0 -0 -0 -0 -0 -0 -0 -0 -0 0 -0 -0 -1 -1 -1 -1 -1 -2 -2 -2 -2 -2 -2 -2 -2
-2 -1 -1 -1 -2 -2 -2 -2 -2 -2 -2 -2 -1 -1 -1 -1 -0 0 -0 -0 0 0 0 0 0 0 -0 0 0 -0 -0 -0 -0 -0 -0 -1 -1 -1 -1 -2 -2 -2 -2 -3 -2 -2 -2 -2 -2
-2 -1 -1 -1 -1 -2 -1 -1 -1 -2 -2 -2 -2 -2 -2 -2 -2 -1 -1 -1 -1 -1 -1 -1 -1 -0 -1 -1 -1 -1 -1 -1 -1 -1 -2 -2 -2 -2 -3 -3 -3 -3 -3 -3 -3 -3 -2 -2 -2
-2 -1 -1 -1 -1 -1 -1 -0 0 -1 -1 -2 -2 -2 -2 -2 -2 -2 -2 -2 -2 -2 -2 -2 -2 -1 -2 -2 -2 -2 -2 -2 -2 -2 -3 -3 -4 -4 -4 -4 -4 -4 -4 -4 -4 -3 -3 -3 -2
-1 -1 -1 -1 -1 -1 -1 -0 0 0 -0 -1 -1 -2 -2 -2 -2 -2 -2 -2 -2 -2 -2 -2 -2 -2 -2 -3 -3 -3 -3 -4 -3 -3 -3 -4 -4 -5 -6 -6 -6 -5 -5 -5 -4 -4 -4 -3 -3
-1 -1 -1 -1 -1 -1 -0 0 1 1 0 0 -1 -1 -2 -2 -2 -2 -2 -2 -2 -2 -2 -2 -3 -3 -3 -3 -3 -4 -4 -4 -4 -4 -4 -5 -5 -6 -7 -7 -7 -7 -6 -5 -5 -5 -4 -4 -4
-1 -0 -0 -1 -1 -1 -0 0 1 1 1 1 0 -0 -1 -1 -2 -3 -3 -3 -3 -3 -2 -2 -3 -3 -3 -3 -3 -4 -4 -4 -5 -5 -5 -6 -6 -7 -8 -8 -8 -8 -7 -6 -5 -5 -5 -5 -5
-0 -0 -0 -0 -0 -0 -0 0 1 1 1 1 1 1 0 -1 -1 -2 -3 -3 -3 -3 -3 -3 -3 -3 -3 -3 -3 -4 -4 -5 -5 -5 -5 -5 -6 -7 -8 -9 -9 -8 -7 -6 -5 -5 -5 -5 -5
0 -0 -0 -0 -0 -0 -0 0 1 1 1 1 1 1 0 -0 -1 -1 -2 -3 -3 -3 -2 -2 -2 -3 -3 -3 -4 -4 -5 -5 -5 -4 -3 -2 -4 -6 -8 -9 -9 -8 -7 -6 -6 -5 -4 -4 -4
0 0 0 -0 -0 -0 0 0 1 1 1 1 0 -0 -0 -1 -1 -1 -2 -2 -2 -2 -2 -2 -3 -4 -4 -4 -4 -5 -5 -5 -4 -3 -1 -0 -1 -5 -8 -9 -9 -8 -7 -7 -6 -5 -4 -3 -4
0 0 0 0 0 0 0 0 1 1 1 -0 -1 -1 -1 -1 -2 -2 -3 -3 -3 -2 -2 -2 -4 -5 -5 -5 -6 -6 -6 -5 -3 -2 -1 -0 -1 -4 -7 -8 -8 -7 -7 -7 -6 -4 -3 -3 -3